Time,TemperatureF,DewpointF,PressureIn,WindDirection,WindDirectionDegrees,WindSpeedMPH,WindSpeedGustMPH,Humidity,HourlyPrecipIn,Conditions,Clouds,dailyrainin,SolarRadiationWatts/m^2,SoftwareType,DateUTC
2013-04-25 00:12:00,38.0,30.0,-100.00,West,268,3.0,6.0,74,0.00,,,-99.99,0.000000,,2013-04-25 05:12:00,
2013-04-25 00:21:00,38.0,30.0,-100.00,West,268,3.0,6.0,74,0.00,,,-99.99,0.000000,,2013-04-25 05:21:00,
2013-04-25 00:32:00,38.0,30.0,-100.00,West,268,3.0,6.0,74,0.00,,,-99.99,0.000000,,2013-04-25 05:32:00,
2013-04-25 00:42:00,38.0,30.0,-100.00,West,268,3.0,6.0,74,0.00,,,-99.99,0.000000,,2013-04-25 05:42:00,
2013-04-25 01:11:00,36.0,30.0,-100.00,West,271,2.0,7.0,78,0.00,,,0.01,0.000000,,2013-04-25 06:11:00,
2013-04-25 01:22:00,36.0,30.0,-100.00,West,271,2.0,7.0,78,0.00,,,0.01,0.000000,,2013-04-25 06:22:00,
2013-04-25 01:32:00,36.0,30.0,-100.00,West,271,2.0,7.0,78,0.00,,,0.01,0.000000,,2013-04-25 06:32:00,
2013-04-25 01:42:00,36.0,30.0,-100.00,West,271,2.0,7.0,78,0.00,,,0.01,0.000000,,2013-04-25 06:42:00,
2013-04-25 02:12:00,35.0,30.0,-100.00,SW,226,2.0,4.0,82,0.00,,,0.01,0.000000,,2013-04-25 07:12:00,
2013-04-25 02:22:00,35.0,30.0,-100.00,SW,226,2.0,4.0,82,0.00,,,0.01,0.000000,,2013-04-25 07:22:00,
2013-04-25 02:32:00,35.0,30.0,-100.00,SW,226,2.0,4.0,82,0.00,,,0.01,0.000000,,2013-04-25 07:32:00,
2013-04-25 02:42:00,35.0,30.0,-100.00,SW,226,2.0,4.0,82,0.00,,,0.01,0.000000,,2013-04-25 07:42:00,
2013-04-25 03:11:00,36.0,31.0,-100.00,SSW,213,2.0,4.0,81,0.00,,,0.01,0.000000,,2013-04-25 08:11:00,
2013-04-25 03:21:00,36.0,31.0,-100.00,SSW,213,2.0,4.0,81,0.00,,,0.01,0.000000,,2013-04-25 08:21:00,
2013-04-25 03:31:00,36.0,31.0,-100.00,SSW,213,2.0,4.0,81,0.00,,,0.01,0.000000,,2013-04-25 08:31:00,
2013-04-25 03:42:00,36.0,31.0,-100.00,SSW,213,2.0,4.0,81,0.00,,,0.01,0.000000,,2013-04-25 08:42:00,
2013-04-25 04:11:00,33.0,31.0,-100.00,West,266,1.0,4.0,91,0.00,,,0.01,0.000000,,2013-04-25 09:11:00,
2013-04-25 04:21:00,33.0,31.0,-100.00,West,266,1.0,4.0,91,0.00,,,0.01,0.000000,,2013-04-25 09:21:00,
2013-04-25 04:33:00,33.0,31.0,-100.00,West,266,1.0,4.0,91,0.00,,,0.01,0.000000,,2013-04-25 09:33:00,
2013-04-25 04:42:00,33.0,31.0,-100.00,West,266,1.0,4.0,91,0.00,,,0.01,0.000000,,2013-04-25 09:42:00,
2013-04-25 05:12:00,31.0,30.0,-100.00,SSW,207,1.0,5.0,96,0.00,,,0.01,0.000000,,2013-04-25 10:12:00,
2013-04-25 05:22:00,31.0,30.0,-100.00,SSW,207,1.0,5.0,96,0.00,,,0.01,0.000000,,2013-04-25 10:22:00,
2013-04-25 05:32:00,31.0,30.0,-100.00,SSW,207,1.0,5.0,96,0.00,,,0.01,0.000000,,2013-04-25 10:32:00,
2013-04-25 05:42:00,31.0,30.0,-100.00,SSW,207,1.0,5.0,96,0.00,,,0.01,0.000000,,2013-04-25 10:42:00,
2013-04-25 06:12:00,30.0,30.0,-100.00,West,275,0.0,3.0,100,0.00,,,0.01,0.000000,,2013-04-25 11:12:00,
2013-04-25 06:22:00,30.0,30.0,-100.00,West,275,0.0,3.0,100,0.00,,,0.01,0.000000,,2013-04-25 11:22:00,
2013-04-25 06:32:00,30.0,30.0,-100.00,West,275,0.0,3.0,100,0.00,,,0.01,0.000000,,2013-04-25 11:32:00,
2013-04-25 06:42:00,30.0,30.0,-100.00,West,275,0.0,3.0,100,0.00,,,0.01,0.000000,,2013-04-25 11:42:00,
2013-04-25 07:12:00,30.0,30.0,-100.00,South,170,0.0,4.0,100,0.00,,,0.01,4.000000,,2013-04-25 12:12:00,
2013-04-25 07:21:00,30.0,30.0,-100.00,South,170,0.0,4.0,100,0.00,,,0.01,4.000000,,2013-04-25 12:21:00,
2013-04-25 07:32:00,30.0,30.0,-100.00,South,170,0.0,4.0,100,0.00,,,0.01,4.000000,,2013-04-25 12:32:00,
2013-04-25 07:42:00,30.0,30.0,-100.00,South,170,0.0,4.0,100,0.00,,,0.01,4.000000,,2013-04-25 12:42:00,
2013-04-25 08:11:00,35.0,35.0,-100.00,SW,218,1.0,3.0,99,0.00,,,0.01,66.000000,,2013-04-25 13:11:00,
2013-04-25 08:21:00,35.0,35.0,-100.00,SW,218,1.0,3.0,99,0.00,,,0.01,66.000000,,2013-04-25 13:21:00,
2013-04-25 08:32:00,35.0,35.0,-100.00,SW,218,1.0,3.0,99,0.00,,,0.01,66.000000,,2013-04-25 13:32:00,
2013-04-25 08:42:00,35.0,35.0,-100.00,SW,218,1.0,3.0,99,0.00,,,0.01,66.000000,,2013-04-25 13:42:00,
2013-04-25 09:11:00,41.0,33.0,-100.00,WSW,239,2.0,4.0,73,0.00,,,0.01,260.000000,,2013-04-25 14:11:00,
2013-04-25 09:21:00,41.0,33.0,-100.00,WSW,239,2.0,4.0,73,0.00,,,0.01,260.000000,,2013-04-25 14:21:00,
2013-04-25 09:32:00,41.0,33.0,-100.00,WSW,239,2.0,4.0,73,0.00,,,0.01,260.000000,,2013-04-25 14:32:00,
2013-04-25 09:42:00,41.0,33.0,-100.00,WSW,239,2.0,4.0,73,0.00,,,0.01,260.000000,,2013-04-25 14:42:00,
2013-04-25 10:11:00,47.0,33.0,-100.00,South,190,5.0,7.0,57,0.00,,,0.01,488.000000,,2013-04-25 15:11:00,
2013-04-25 10:21:00,47.0,33.0,-100.00,South,190,5.0,7.0,57,0.00,,,0.01,488.000000,,2013-04-25 15:21:00,
2013-04-25 10:33:00,47.0,33.0,-100.00,South,190,5.0,7.0,57,0.00,,,0.01,488.000000,,2013-04-25 15:33:00,
2013-04-25 10:42:00,47.0,33.0,-100.00,South,190,5.0,7.0,57,0.00,,,0.01,488.000000,,2013-04-25 15:42:00,
2013-04-25 11:13:00,53.0,35.0,-100.00,SSW,213,5.0,11.0,50,0.00,,,0.01,703.000000,,2013-04-25 16:13:00,
2013-04-25 11:24:00,53.0,35.0,-100.00,SSW,213,5.0,11.0,50,0.00,,,0.01,703.000000,,2013-04-25 16:24:00,
2013-04-25 11:32:00,53.0,35.0,-100.00,SSW,213,5.0,11.0,50,0.00,,,0.01,703.000000,,2013-04-25 16:32:00,
2013-04-25 11:42:00,53.0,35.0,-100.00,SSW,213,5.0,11.0,50,0.00,,,0.01,703.000000,,2013-04-25 16:42:00,
2013-04-25 12:11:00,57.0,31.0,-100.00,SSW,211,9.0,16.0,37,0.00,,,0.01,861.000000,,2013-04-25 17:11:00,
2013-04-25 12:22:00,57.0,31.0,-100.00,SSW,211,9.0,16.0,37,0.00,,,0.01,861.000000,,2013-04-25 17:22:00,
2013-04-25 12:32:00,57.0,31.0,-100.00,SSW,211,9.0,16.0,37,0.00,,,0.01,861.000000,,2013-04-25 17:32:00,
2013-04-25 12:42:00,57.0,31.0,-100.00,SSW,211,9.0,16.0,37,0.00,,,0.01,861.000000,,2013-04-25 17:42:00,
2013-04-25 13:01:00,61.0,31.0,-100.00,SSW,198,9.0,17.0,32,0.00,,,0.01,1015.000000,,2013-04-25 18:01:00,
2013-04-25 13:11:00,61.0,31.0,-100.00,SSW,198,9.0,17.0,32,0.00,,,0.01,1015.000000,,2013-04-25 18:11:00,
2013-04-25 13:22:00,61.0,31.0,-100.00,SSW,198,9.0,17.0,32,0.00,,,0.01,1015.000000,,2013-04-25 18:22:00,
2013-04-25 13:32:00,61.0,31.0,-100.00,SSW,198,9.0,17.0,32,0.00,,,0.01,1015.000000,,2013-04-25 18:32:00,
2013-04-25 13:42:00,61.0,31.0,-100.00,SSW,198,9.0,17.0,32,0.00,,,0.01,1015.000000,,2013-04-25 18:42:00,
2013-04-25 14:12:00,65.0,29.0,-100.00,South,176,8.0,15.0,26,0.00,,,0.01,1091.000000,,2013-04-25 19:12:00,
2013-04-25 14:21:00,65.0,29.0,-100.00,South,176,8.0,15.0,26,0.00,,,0.01,1091.000000,,2013-04-25 19:21:00,
2013-04-25 14:31:00,65.0,29.0,-100.00,South,176,8.0,15.0,26,0.00,,,0.01,1091.000000,,2013-04-25 19:31:00,
2013-04-25 14:42:00,65.0,29.0,-100.00,South,176,8.0,15.0,26,0.00,,,0.01,1091.000000,,2013-04-25 19:42:00,
2013-04-25 15:11:00,68.0,32.0,-100.00,South,180,9.0,20.0,26,0.00,,,0.01,1059.000000,,2013-04-25 20:11:00,
2013-04-25 15:22:00,68.0,32.0,-100.00,South,180,9.0,20.0,26,0.00,,,0.01,1059.000000,,2013-04-25 20:22:00,
2013-04-25 15:32:00,68.0,32.0,-100.00,South,180,9.0,20.0,26,0.00,,,0.01,1059.000000,,2013-04-25 20:32:00,
2013-04-25 15:42:00,68.0,32.0,-100.00,South,180,9.0,20.0,26,0.00,,,0.01,1059.000000,,2013-04-25 20:42:00,
2013-04-25 16:11:00,70.0,32.0,-100.00,South,178,10.0,19.0,24,0.00,,,0.01,977.000000,,2013-04-25 21:11:00,
2013-04-25 16:22:00,70.0,32.0,-100.00,South,178,10.0,19.0,24,0.00,,,0.01,977.000000,,2013-04-25 21:22:00,
2013-04-25 16:33:00,70.0,32.0,-100.00,South,178,10.0,19.0,24,0.00,,,0.01,977.000000,,2013-04-25 21:33:00,
2013-04-25 16:42:00,70.0,32.0,-100.00,South,178,10.0,19.0,24,0.00,,,0.01,977.000000,,2013-04-25 21:42:00,
2013-04-25 17:12:00,70.0,33.0,-100.00,South,185,12.0,29.0,25,0.00,,,0.01,794.000000,,2013-04-25 22:12:00,
2013-04-25 17:22:00,70.0,33.0,-100.00,South,185,12.0,29.0,25,0.00,,,0.01,794.000000,,2013-04-25 22:22:00,
2013-04-25 17:33:00,70.0,33.0,-100.00,South,185,12.0,29.0,25,0.00,,,0.01,794.000000,,2013-04-25 22:33:00,
2013-04-25 17:42:00,70.0,33.0,-100.00,South,185,12.0,29.0,25,0.00,,,0.01,794.000000,,2013-04-25 22:42:00,
2013-04-25 18:12:00,71.0,32.0,-100.00,South,186,11.0,23.0,24,0.00,,,0.01,585.000000,,2013-04-25 23:12:00,
2013-04-25 18:22:00,71.0,32.0,-100.00,South,186,11.0,23.0,24,0.00,,,0.01,585.000000,,2013-04-25 23:22:00,
2013-04-25 18:32:00,71.0,32.0,-100.00,South,186,11.0,23.0,24,0.00,,,0.01,585.000000,,2013-04-25 23:32:00,
2013-04-25 18:42:00,71.0,32.0,-100.00,South,186,11.0,23.0,24,0.00,,,0.01,585.000000,,2013-04-25 23:42:00,
2013-04-25 19:11:00,70.0,34.0,-100.00,South,185,11.0,26.0,26,0.00,,,0.01,411.000000,,2013-04-26 00:11:00,
2013-04-25 19:21:00,70.0,34.0,-100.00,South,185,11.0,26.0,26,0.00,,,0.01,411.000000,,2013-04-26 00:21:00,
2013-04-25 19:32:00,70.0,34.0,-100.00,South,185,11.0,26.0,26,0.00,,,0.01,411.000000,,2013-04-26 00:32:00,
2013-04-25 19:41:00,70.0,34.0,-100.00,South,185,11.0,26.0,26,0.00,,,0.01,411.000000,,2013-04-26 00:41:00,
2013-04-25 20:11:00,67.0,35.0,-100.00,South,176,9.0,27.0,30,0.00,,,0.00,176.000000,,2013-04-26 01:11:00,
2013-04-25 20:21:00,67.0,35.0,-100.00,South,176,9.0,27.0,30,0.00,,,0.00,176.000000,,2013-04-26 01:21:00,
2013-04-25 20:31:00,67.0,35.0,-100.00,South,176,9.0,27.0,30,0.00,,,0.00,176.000000,,2013-04-26 01:31:00,
2013-04-25 20:42:00,67.0,35.0,-100.00,South,176,9.0,27.0,30,0.00,,,0.00,176.000000,,2013-04-26 01:42:00,
2013-04-25 21:11:00,63.0,36.0,-100.00,South,177,8.0,15.0,36,0.00,,,0.00,11.000000,,2013-04-26 02:11:00,
2013-04-25 21:21:00,63.0,36.0,-100.00,South,177,8.0,15.0,36,0.00,,,0.00,11.000000,,2013-04-26 02:21:00,
2013-04-25 21:32:00,63.0,36.0,-100.00,South,177,8.0,15.0,36,0.00,,,0.00,11.000000,,2013-04-26 02:32:00,
2013-04-25 21:42:00,63.0,36.0,-100.00,South,177,8.0,15.0,36,0.00,,,0.00,11.000000,,2013-04-26 02:42:00,
2013-04-25 22:11:00,62.0,35.0,-100.00,South,169,8.0,18.0,36,0.00,,,0.00,0.000000,,2013-04-26 03:11:00,
2013-04-25 22:21:00,62.0,35.0,-100.00,South,169,8.0,18.0,36,0.00,,,0.00,0.000000,,2013-04-26 03:21:00,
2013-04-25 22:33:00,62.0,35.0,-100.00,South,169,8.0,18.0,36,0.00,,,0.00,0.000000,,2013-04-26 03:33:00,
2013-04-25 22:43:00,62.0,35.0,-100.00,South,169,8.0,18.0,36,0.00,,,0.00,0.000000,,2013-04-26 03:43:00,
2013-04-25 23:12:00,60.0,34.0,-100.00,SSE,168,8.0,14.0,38,0.00,,,0.00,0.000000,,2013-04-26 04:12:00,
2013-04-25 23:23:00,60.0,34.0,-100.00,SSE,168,8.0,14.0,38,0.00,,,0.00,0.000000,,2013-04-26 04:23:00,
2013-04-25 23:32:00,60.0,34.0,-100.00,SSE,168,8.0,14.0,38,0.00,,,0.00,0.000000,,2013-04-26 04:32:00,
2013-04-25 23:43:00,60.0,34.0,-100.00,SSE,168,8.0,14.0,38,0.00,,,0.00,0.000000,,2013-04-26 04:43:00,